Meteo pe oră la Abdul-Zavod

Astăzi, 26 Iulie, Luni

Timp Temperatura Precipitaţii Vânt Presiune Umiditate
00:00 +13°C° 0 mm 1 m/s 754 mmHg 50%
01:00 +13°C° 0 mm 1 m/s 755 mmHg 51%
02:00 +12°C° 0 mm 0 m/s 755 mmHg 52%
03:00 +11°C° 0 mm 0 m/s 755 mmHg 53%
04:00 +13°C° 0 mm 0 m/s 755 mmHg 51%
05:00 +15°C° 0 mm 1 m/s 755 mmHg 48%
06:00 +16°C° 0 mm 1 m/s 755 mmHg 46%
07:00 +19°C° 0 mm 1 m/s 755 mmHg 42%
08:00 +20°C° 0 mm 2 m/s 755 mmHg 38%
09:00 +22°C° 0 mm 3 m/s 755 mmHg 34%
10:00 +22°C° 0 mm 3 m/s 755 mmHg 32%
11:00 +24°C° 0 mm 3 m/s 755 mmHg 31%
12:00 +23°C° 0 mm 4 m/s 755 mmHg 29%
13:00 +25°C° 0 mm 4 m/s 754 mmHg 29%
14:00 +25°C° 0 mm 3 m/s 754 mmHg 29%
15:00 +25°C° 0 mm 3 m/s 754 mmHg 29%
16:00 +24°C° 0 mm 3 m/s 754 mmHg 33%
17:00 +22°C° 0 mm 3 m/s 754 mmHg 37%
18:00 +21°C° 0 mm 3 m/s 754 mmHg 41%
19:00 +20°C° 0 mm 2 m/s 754 mmHg 44%
20:00 +20°C° 0 mm 1 m/s 754 mmHg 48%
21:00 +18°C° 0 mm 1 m/s 754 mmHg 52%
22:00 +18°C° 0 mm 1 m/s 754 mmHg 53%
23:00 +18°C° 0 mm 1 m/s 754 mmHg 54%

Mâine, 27 Iulie, Marţi

Timp Temperatura Precipitaţii Vânt Presiune Umiditate
00:00 +16°C° 0 mm 1 m/s 754 mmHg 54%
01:00 +16°C° 0 mm 1 m/s 753 mmHg 57%
02:00 +15°C° 0 mm 1 m/s 753 mmHg 59%
03:00 +15°C° 0 mm 1 m/s 753 mmHg 61%
04:00 +16°C° 0 mm 1 m/s 753 mmHg 59%
05:00 +17°C° 0 mm 2 m/s 753 mmHg 56%
06:00 +18°C° 0 mm 2 m/s 753 mmHg 54%
07:00 +20°C° 0 mm 3 m/s 753 mmHg 49%
08:00 +22°C° 0 mm 4 m/s 753 mmHg 45%
09:00 +25°C° 0 mm 5 m/s 753 mmHg 40%
10:00 +25°C° 0 mm 5 m/s 752 mmHg 38%
11:00 +26°C° 0 mm 5 m/s 752 mmHg 36%
12:00 +26°C° 0 mm 6 m/s 751 mmHg 34%
13:00 +26°C° 0 mm 5 m/s 751 mmHg 36%
14:00 +26°C° 0 mm 5 m/s 751 mmHg 37%
15:00 +26°C° 0 mm 5 m/s 751 mmHg 38%
16:00 +25°C° 0.1 mm 4 m/s 750 mmHg 46%
17:00 +22°C° 0.1 mm 3 m/s 750 mmHg 53%
18:00 +21°C° 0.1 mm 2 m/s 750 mmHg 60%
19:00 +19°C° 0.3 mm 2 m/s 750 mmHg 70%
20:00 +18°C° 0.3 mm 2 m/s 750 mmHg 80%
21:00 +16°C° 0.3 mm 2 m/s 750 mmHg 90%
22:00 +15°C° 0 mm 2 m/s 751 mmHg 89%
23:00 +15°C° 0 mm 1 m/s 751 mmHg 88%

Poimâine, 28 Iulie, Miercuri

Timp Temperatura Precipitaţii Vânt Presiune Umiditate
00:00 +14°C° 0 mm 1 m/s 751 mmHg 87%
01:00 +14°C° 0 mm 1 m/s 751 mmHg 86%
02:00 +14°C° 0 mm 1 m/s 751 mmHg 85%
03:00 +13°C° 0 mm 1 m/s 751 mmHg 84%
04:00 +14°C° 0 mm 1 m/s 751 mmHg 83%
05:00 +15°C° 0 mm 1 m/s 751 mmHg 81%
06:00 +16°C° 0 mm 1 m/s 751 mmHg 79%
07:00 +18°C° 0 mm 2 m/s 751 mmHg 69%
08:00 +20°C° 0 mm 2 m/s 751 mmHg 59%
09:00 +21°C° 0 mm 3 m/s 751 mmHg 49%
10:00 +22°C° 0 mm 3 m/s 751 mmHg 43%
11:00 +24°C° 0 mm 3 m/s 751 mmHg 37%
12:00 +25°C° 0 mm 4 m/s 751 mmHg 31%
13:00 +26°C° 0 mm 3 m/s 751 mmHg 30%
14:00 +26°C° 0 mm 3 m/s 750 mmHg 29%
15:00 +26°C° 0 mm 3 m/s 750 mmHg 28%
16:00 +26°C° 0 mm 3 m/s 750 mmHg 31%
17:00 +25°C° 0 mm 2 m/s 750 mmHg 33%
18:00 +25°C° 0 mm 2 m/s 750 mmHg 36%
19:00 +21°C° 0 mm 2 m/s 750 mmHg 41%
20:00 +20°C° 0 mm 1 m/s 750 mmHg 46%
21:00 +18°C° 0 mm 1 m/s 750 mmHg 51%
22:00 +16°C° 0 mm 1 m/s 750 mmHg 52%
23:00 +16°C° 0 mm 1 m/s 750 mmHg 53%

29 Iulie, Joi

Timp Temperatura Precipitaţii Vânt Presiune Umiditate
00:00 +16°C° 0 mm 1 m/s 749 mmHg 53%
01:00 +16°C° 0 mm 1 m/s 749 mmHg 54%
02:00 +16°C° 0 mm 2 m/s 749 mmHg 54%
03:00 +16°C° 0 mm 2 m/s 749 mmHg 55%
04:00 +17°C° 0 mm 2 m/s 749 mmHg 53%
05:00 +18°C° 0 mm 3 m/s 749 mmHg 50%
06:00 +19°C° 0 mm 3 m/s 748 mmHg 48%
07:00 +21°C° 0 mm 4 m/s 748 mmHg 46%
08:00 +23°C° 0 mm 5 m/s 748 mmHg 43%
09:00 +25°C° 0 mm 5 m/s 747 mmHg 41%
10:00 +26°C° 0 mm 6 m/s 747 mmHg 39%
11:00 +28°C° 0 mm 7 m/s 747 mmHg 36%
12:00 +29°C° 0 mm 8 m/s 746 mmHg 34%
13:00 +26°C° 0.5 mm 7 m/s 746 mmHg 50%
14:00 +22°C° 0.5 mm 6 m/s 746 mmHg 66%
15:00 +19°C° 0.5 mm 6 m/s 746 mmHg 82%
16:00 +19°C° 0.2 mm 5 m/s 745 mmHg 81%
17:00 +19°C° 0.2 mm 5 m/s 744 mmHg 80%
18:00 +20°C° 0.2 mm 5 m/s 744 mmHg 79%
19:00 +19°C° 0.8 mm 5 m/s 744 mmHg 82%
20:00 +19°C° 0.8 mm 5 m/s 743 mmHg 86%
21:00 +19°C° 0.8 mm 5 m/s 743 mmHg 90%
22:00 +19°C° 0 mm 4 m/s 743 mmHg 91%
23:00 +19°C° 0 mm 4 m/s 743 mmHg 92%

30 Iulie, Vineri

Timp Temperatura Precipitaţii Vânt Presiune Umiditate
00:00 +18°C° 0 mm 3 m/s 743 mmHg 94%
01:00 +18°C° 0.1 mm 3 m/s 743 mmHg 94%
02:00 +18°C° 0.1 mm 3 m/s 743 mmHg 95%
03:00 +18°C° 0.1 mm 3 m/s 742 mmHg 96%
04:00 +19°C° 0 mm 3 m/s 743 mmHg 93%
05:00 +19°C° 0 mm 3 m/s 743 mmHg 90%
06:00 +20°C° 0 mm 3 m/s 743 mmHg 87%
07:00 +22°C° 0 mm 4 m/s 743 mmHg 77%
08:00 +25°C° 0 mm 5 m/s 743 mmHg 66%
09:00 +26°C° 0 mm 6 m/s 743 mmHg 56%
10:00 +27°C° 0 mm 6 m/s 744 mmHg 54%
11:00 +28°C° 0 mm 6 m/s 744 mmHg 51%
12:00 +29°C° 0 mm 6 m/s 744 mmHg 49%
13:00 +29°C° 0 mm 6 m/s 744 mmHg 47%
14:00 +29°C° 0 mm 6 m/s 744 mmHg 45%
15:00 +30°C° 0 mm 5 m/s 744 mmHg 43%
16:00 +29°C° 0 mm 5 m/s 744 mmHg 45%
17:00 +28°C° 0 mm 4 m/s 744 mmHg 48%
18:00 +28°C° 0 mm 3 m/s 745 mmHg 50%
19:00 +26°C° 0 mm 2 m/s 745 mmHg 55%
20:00 +24°C° 0 mm 2 m/s 745 mmHg 61%
21:00 +23°C° 0 mm 1 m/s 745 mmHg 66%
22:00 +22°C° 0.1 mm 1 m/s 745 mmHg 68%
23:00 +22°C° 0.1 mm 1 m/s 745 mmHg 69%

31 Iulie, Sâmbătă

Timp Temperatura Precipitaţii Vânt Presiune Umiditate
00:00 +22°C° 0.1 mm 1 m/s 745 mmHg 71%
01:00 +21°C° 0.2 mm 1 m/s 745 mmHg 73%
02:00 +21°C° 0.2 mm 1 m/s 745 mmHg 75%
03:00 +20°C° 0.2 mm 1 m/s 745 mmHg 77%
04:00 +21°C° 0 mm 1 m/s 745 mmHg 75%
05:00 +22°C° 0 mm 1 m/s 745 mmHg 72%
06:00 +23°C° 0 mm 1 m/s 746 mmHg 70%
07:00 +25°C° 0 mm 2 m/s 746 mmHg 64%
08:00 +27°C° 0 mm 2 m/s 746 mmHg 58%
09:00 +29°C° 0 mm 3 m/s 746 mmHg 51%
10:00 +30°C° 0 mm 3 m/s 746 mmHg 48%
11:00 +31°C° 0 mm 3 m/s 746 mmHg 44%
12:00 +34°C° 0 mm 3 m/s 746 mmHg 40%
13:00 +34°C° 0 mm 3 m/s 746 mmHg 39%
14:00 +34°C° 0 mm 3 m/s 746 mmHg 38%
15:00 +34°C° 0 mm 3 m/s 745 mmHg 36%
16:00 +34°C° 0 mm 3 m/s 745 mmHg 39%
17:00 +33°C° 0 mm 3 m/s 745 mmHg 41%
18:00 +31°C° 0 mm 2 m/s 745 mmHg 44%
19:00 +29°C° 0 mm 2 m/s 745 mmHg 49%
20:00 +28°C° 0 mm 2 m/s 746 mmHg 53%
21:00 +26°C° 0 mm 1 m/s 746 mmHg 58%
22:00 +25°C° 0 mm 1 m/s 746 mmHg 59%
23:00 +25°C° 0 mm 1 m/s 746 mmHg 61%
Arată mai mult

Formular de consimțământ

Meteoprog și furnizorii noștri de servicii pot stoca și accesa date personale, precum cookies, identificatori de dispozitiv sau alte tehnologii similare pe dispozitivul dumneavoastră și procesa astfel de date pentru a personaliza conținutul și reclamele, dar și pentru a oferi caracteristici de social media și pentru a analiza traficul.

  • Stocarea și/sau accesarea informațiilor pe dispozitivul dumneavoastră

    Cookies, identificatori de dispozitiv sau alte informații pot fi stocate sau accesate pe dispozitiv în scopurile indicate mai sus.

  • Reclame și conținut personalizat, evaluarea reclamelor și a conținutului, informații despre audiențe și dezvoltarea produselor

    Reclamele și conținutul pot fi personalizate pe baza unui profil. Pot fi adăugate date suplimentare pentru a personaliza mai bine reclamele și conținutul. Performanța reclamelor și conținutului poate fi măsurată. Pot fi obținute informații despre utilizatorii care au văzut reclamele și conținutul. Aceste date pot fi utilizate pentru a dezvolta sau îmbunătăți experiența utilizatorilor, sistemele și software-ul.

Dând clic pe ‘Sunt de acord’, permiteți utilizarea cookie-urilor menționate, a identificatorilor de dispozitiv, balizelor web sau altor tehnologii similare. Setările pot fi modificate din browser-ul dispozitivului dumneavoastră.

În anumite scopuri, interesele legitime pot prima asupra consimțământului. Puteți citi mai multe informații în acest sens în Politica privind Confidențialitatea Datelor și Cookie.